Wind_Speed
24 23 25 28 30 31 31 28 24 19 16 16 14 13 15 19 22 20 19 17 18 18 24 25 24 15 5 7 5 5 2 2 4 9 13 13 13 16 18 16 16 18 17 16 15 14 15 16 17 18 17 16 15 15 14 14 13 15 16 11 6 4 4 6 6 5 5 4 4 7 10 11 14 16 18 18 18 16 16 16 15 15 17 19 21 22
21 24 26 26 24 24 27 27 25 23 19 17 15 14 16 20 24 22 18 16 15 20 26 23 21 15 10 10 5 7 7 7 8 9 11 15 18 19 18 18 17 17 16 14 14 15 15 14 16 17 15 14 14 15 16 14 13 15 16 12 9 7 5 6 6 6 6 5 5 7 8 10 12 15 18 19 19 20 19 18 17 17 18 19 22 24
18 25 25 20 18 19 22 25 26 26 22 19 17 14 18 20 21 19 10 4 3 18 23 21 19 13 12 10 4 10 10 9 12 14 15 17 18 20 20 19 19 17 16 14 13 14 14 14 16 15 14 14 13 14 14 15 15 16 16 14 13 10 6 6 7 7 6 5 5 7 8 11 13 15 17 18 19 21 22 21 19 19 19 20 23 26
17 20 19 15 15 18 21 23 25 25 23 21 18 15 16 16 14 13 7 4 4 5 11 17 17 14 14 11 7 9 11 12 14 16 16 17 17 19 20 19 19 18 17 17 15 14 14 15 15 14 15 14 11 10 11 13 14 16 16 15 15 12 7 6 8 7 6 5 5 6 7 11 13 15 18 20 20 21 22 23 22 21 21 22 25 26
15 8 10 12 14 18 20 22 23 23 22 20 18 17 17 13 9 11 11 6 6 4 2 9 14 14 15 13 8 5 8 11 14 15 15 16 16 16 18 18 19 18 17 17 16 16 15 14 13 14 14 13 10 9 10 11 12 13 15 14 14 12 9 8 8 7 7 6 7 7 8 10 12 14 17 19 19 21 23 24 22 21 22 24 26 28
14 11 8 10 12 17 20 21 22 21 20 19 16 18 20 16 12 12 12 11 10 5 1 4 6 7 10 12 8 5 8 10 13 14 15 18 17 15 15 16 17 18 18 17 17 18 18 15 12 12 12 13 12 12 13 13 12 13 13 12 12 11 11 11 10 8 7 7 8 8 8 8 10 12 13 14 15 17 20 22 21 21 23 25 28 28
17 11 9 11 11 15 19 19 20 18 19 20 17 16 18 18 15 12 9 9 9 4 0 2 3 1 2 5 7 8 10 11 12 13 15 18 20 19 18 16 15 17 19 20 19 19 19 17 15 14 14 14 14 15 15 14 15 15 13 11 11 11 11 12 12 12 9 8 10 9 8 7 7 10 12 12 14 15 17 21 22 22 23 25 28 27
19 14 13 14 14 17 19 19 17 14 17 18 16 14 15 17 15 11 10 12 11 5 2 3 2 0 1 4 7 10 10 10 11 12 14 16 19 21 19 15 13 14 16 18 17 18 18 17 17 16 15 15 16 16 16 15 16 16 14 12 11 10 10 11 14 14 11 11 11 11 11 9 7 9 11 13 15 17 19 21 21 22 25 27 27 26
15 14 13 13 18 20 19 18 15 15 17 16 15 16 16 16 16 13 13 14 13 9 3 4 2 2 2 3 5 9 9 5 5 7 9 11 13 16 15 12 10 10 11 11 12 13 14 15 17 16 15 16 16 16 15 14 14 15 15 15 15 13 12 13 16 15 13 13 14 14 14 10 8 9 11 13 15 18 21 21 21 25 28 28 27 25
14 15 13 13 18 19 15 15 18 19 17 12 11 13 10 9 12 13 14 12 10 8 2 2 2 1 2 1 2 4 4 5 4 3 3 6 8 11 11 10 8 7 7 6 7 9 10 12 13 12 14 17 18 19 16 12 12 14 15 17 17 17 17 17 17 17 16 16 16 17 15 11 10 10 12 14 16 19 21 22 23 27 29 28 26 25
20 18 16 15 15 15 13 15 19 17 14 12 10 9 7 8 10 11 13 10 5 3 2 4 6 1 2 5 8 7 7 7 5 6 5 4 6 8 9 10 8 6 7 7 7 8 9 9 10 11 14 17 20 21 15 9 12 15 16 15 14 15 19 20 19 20 20 19 19 19 17 14 12 11 13 14 16 19 21 23 25 26 27 27 26 25
23 21 17 13 12 13 15 16 17 13 11 12 12 11 9 9 9 6 6 6 1 1 3 6 8 5 1 6 9 7 6 4 3 3 3 2 2 5 7 9 9 8 6 5 7 8 9 9 10 11 13 16 19 19 17 17 17 17 18 18 15 15 19 22 22 23 24 22 21 21 20 17 14 13 14 14 16 19 21 25 28 27 28 28 27 26
21 22 17 11 12 15 17 16 16 14 12 12 12 13 9 3 3 3 2 2 2 3 5 6 7 4 5 10 7 5 5 3 2 2 3 2 1 2 4 6 7 8 7 7 7 7 8 11 12 13 14 16 19 21 23 23 18 17 20 21 20 19 19 22 25 26 27 26 24 23 21 18 15 14 15 15 17 18 18 23 27 27 29 28 27 25
15 18 18 13 13 17 17 16 16 15 15 15 12 13 11 4 3 2 3 0 2 5 6 6 4 4 11 10 4 3 3 1 2 2 3 3 3 3 5 6 8 9 9 9 9 9 10 11 12 14 16 18 22 24 24 22 19 18 21 24 25 24 23 25 29 31 32 30 26 23 20 18 15 14 15 15 16 17 17 21 26 27 28 27 25 22
11 11 15 15 12 14 17 15 15 14 15 16 13 12 13 8 4 3 2 2 2 3 6 7 5 7 13 10 5 4 1 2 3 4 6 6 8 8 9 10 9 10 10 10 11 11 11 11 12 14 16 19 22 21 19 21 23 22 23 29 31 28 25 25 29 33 34 30 24 20 19 18 16 14 15 16 16 18 20 23 26 27 28 27 24 21
11 8 11 15 12 11 14 15 15 14 14 17 13 10 13 14 11 8 5 6 5 1 2 5 4 8 15 15 10 7 3 3 2 4 5 8 9 10 11 11 10 11 11 12 13 13 13 12 12 13 15 17 19 19 19 22 24 24 25 30 31 28 24 22 25 30 31 26 20 19 20 19 17 15 15 15 16 19 24 26 28 29 29 28 26 23
10 9 9 14 16 13 12 14 16 14 13 17 15 13 15 16 16 13 8 7 5 2 2 7 10 13 16 13 10 7 6 6 6 6 6 7 8 9 10 10 10 11 13 14 14 14 14 14 13 13 13 14 15 17 19 19 20 20 21 24 25 24 24 25 25 24 23 21 19 20 22 19 17 17 16 16 17 21 25 28 30 30 29 28 27 25
8 9 7 12 17 15 10 11 13 12 12 15 13 14 18 17 16 13 6 3 3 1 4 7 13 16 12 7 9 10 7 8 9 9 8 9 9 9 10 10 10 12 13 14 12 11 11 12 13 12 11 13 14 15 16 15 15 15 15 17 20 22 24 25 22 17 17 20 22 22 21 19 18 18 17 18 20 23 25 27 30 29 27 26 24 23
8 9 7 9 13 11 10 12 12 11 13 13 10 11 14 12 10 10 6 2 3 2 2 4 10 11 6 3 8 8 5 6 8 10 11 12 11 11 13 12 12 13 13 11 9 8 9 9 11 11 11 12 12 14 14 13 13 14 13 15 18 20 20 16 13 14 16 20 20 20 19 19 19 20 19 19 21 24 26 27 27 27 26 25 22 19
10 8 5 8 9 8 10 13 16 16 16 14 12 12 12 9 6 8 8 5 5 3 2 3 3 3 2 1 4 6 6 7 9 10 12 13 12 13 14 13 13 14 13 11 9 8 9 8 8 9 10 11 12 13 13 12 12 13 14 15 16 17 15 11 11 14 17 19 16 16 20 20 19 20 20 20 21 23 25 26 25 26 26 25 22 19
14 11 5 6 9 7 7 3 8 15 18 18 16 13 10 8 7 7 8 7 6 3 4 3 0 2 5 2 4 7 8 8 10 11 13 13 12 12 13 12 12 12 10 10 10 10 10 9 6 5 6 9 12 14 13 13 12 13 14 16 16 14 11 11 14 16 18 19 18 17 21 21 18 19 21 21 22 23 25 25 25 27 28 24 20 21
16 16 11 5 7 10 13 10 6 7 10 11 10 7 6 7 8 6 4 5 6 4 6 6 2 5 7 3 7 9 8 9 10 12 13 13 12 13 13 11 9 9 8 7 8 9 10 9 7 5 4 6 10 13 12 12 12 12 13 13 13 13 12 11 13 13 14 20 23 22 21 19 17 20 22 22 22 23 24 25 25 27 28 24 22 26
15 17 15 8 7 10 11 10 8 6 6 8 9 6 1 3 6 6 3 5 8 6 7 8 5 8 10 7 10 12 11 11 10 13 14 13 14 15 14 9 7 8 8 8 8 9 9 10 9 8 6 7 8 9 8 7 6 7 10 12 12 14 14 12 12 11 10 13 17 20 21 20 18 20 21 20 20 22 24 25 26 26 28 28 29 29
14 15 15 10 6 6 8 10 8 5 6 7 6 7 5 2 1 4 6 7 9 8 8 6 3 8 13 10 12 12 12 12 12 13 14 13 12 12 12 8 6 7 7 8 9 9 10 10 9 8 8 8 9 8 8 7 6 6 8 12 15 16 17 17 17 17 9 5 5 12 17 19 18 18 18 18 19 23 25 26 27 27 29 31 31 28
11 11 12 7 4 5 6 6 4 4 4 4 6 8 6 5 2 3 6 6 6 6 8 5 3 9 14 13 13 13 13 14 13 11 10 10 8 7 7 6 7 7 6 7 8 9 10 9 7 6 4 3 5 7 10 10 11 13 13 16 18 19 19 20 21 20 13 4 6 11 13 16 17 18 17 18 19 24 27 28 29 28 27 29 30 27
9 10 10 5 3 3 4 5 4 2 1 4 6 6 6 5 2 1 4 5 5 8 9 7 9 15 15 15 15 15 16 15 13 9 7 8 8 6 5 3 5 7 6 7 7 6 7 7 7 5 3 1 1 3 7 9 11 14 17 19 21 21 20 20 22 22 16 9 10 14 17 20 21 21 19 18 20 25 29 30 30 28 26 29 32 28
9 10 8 5 3 5 5 5 3 2 2 0 0 4 3 3 2 2 4 5 7 10 10 9 16 20 17 16 17 16 16 14 12 10 8 7 7 8 7 4 4 5 5 5 4 4 5 5 5 4 3 2 1 2 4 6 9 11 15 19 20 21 20 20 22 24 21 16 17 20 23 25 26 26 22 18 21 27 31 32 32 31 30 31 29 26
10 11 8 5 5 7 6 5 4 2 2 2 2 4 4 2 2 3 3 5 9 10 8 12 20 22 18 18 18 16 16 14 12 11 10 7 5 7 9 8 6 4 3 2 2 3 4 4 3 2 2 1 1 1 2 4 6 9 12 16 19 21 22 21 22 25 26 26 27 27 28 28 30 30 25 21 23 29 32 33 35 36 36 32 27 25
12 12 12 11 11 10 6 4 4 4 4 5 4 2 3 4 5 5 6 8 12 10 9 17 23 21 19 19 18 16 15 13 10 10 9 7 5 6 9 10 9 6 3 1 2 3 3 2 1 1 1 2 2 3 3 3 4 6 8 12 15 20 22 22 22 24 27 30 29 27 27 26 28 29 26 24 27 32 35 35 36 36 34 30 27 27
11 14 12 11 11 9 5 5 4 3 5 7 7 5 2 2 2 4 7 10 12 10 12 20 24 21 18 16 14 13 12 9 8 8 8 7 7 9 10 9 8 8 6 3 3 3 2 1 1 1 1 2 3 4 4 5 5 5 6 8 11 15 20 23 24 24 26 28 29 29 28 27 27 27 26 26 29 34 37 37 38 37 32 28 29 30
9 14 12 11 14 14 9 8 6 4 5 8 9 8 5 2 2 5 8 8 9 11 15 21 24 20 15 12 9 8 8 7 8 9 8 7 8 9 9 6 5 7 7 5 4 3 2 2 2 2 3 3 3 4 4 5 6 7 7 8 9 10 14 19 23 26 27 29 30 31 31 30 28 29 30 29 30 35 38 39 41 39 33 29 31 32
8 13 12 10 15 18 13 10 9 8 9 10 11 10 7 4 2 4 6 7 8 13 16 18 19 17 12 9 8 7 8 9 9 9 7 6 5 5 5 5 6 7 7 6 5 4 4 4 4 4 4 4 4 5 6 6 7 7 8 8 9 11 11 13 17 22 27 30 31 31 31 32 30 31 33 33 33 37 41 41 42 39 33 32 33 32
9 13 13 9 13 19 16 11 12 13 9 7 8 7 3 2 2 3 6 6 7 9 10 10 12 10 7 6 7 8 9 11 11 9 8 7 5 4 5 7 7 7 7 7 6 6 7 7 6 5 5 4 6 6 6 7 7 8 9 9 10 11 11 10 12 16 21 26 30 30 30 31 31 32 34 36 36 38 41 41 42 40 34 33 34 33
8 11 11 8 12 18 17 14 12 8 4 3 5 4 1 3 2 2 5 8 8 8 8 8 8 8 6 6 8 8 7 8 9 7 6 6 5 4 6 6 6 6 7 8 8 9 11 11 10 8 6 7 9 8 7 8 9 11 12 12 12 12 12 12 13 14 16 19 24 28 28 29 32 33 35 37 38 38 39 41 44 43 36 33 35 35
8 10 10 9 12 17 18 14 7 2 3 6 7 6 4 2 4 3 5 8 8 8 8 8 8 8 7 7 7 7 6 7 7 7 6 6 5 6 8 7 7 7 7 8 10 11 12 14 14 12 10 11 12 11 10 11 12 13 14 14 14 14 13 14 15 16 16 15 18 26 29 30 32 35 36 39 40 40 40 43 45 44 38 35 36 36
7 9 10 11 14 14 13 9 4 5 9 11 9 9 8 3 2 3 7 8 7 6 6 6 6 7 8 7 7 8 8 8 7 7 7 6 5 6 8 8 8 7 7 9 10 11 12 14 15 13 13 14 15 14 14 14 14 15 14 13 14 14 14 14 15 16 18 17 15 20 28 31 33 36 38 38 40 41 42 43 44 45 41 39 38 38
5 7 10 10 10 11 10 10 11 12 12 11 12 11 10 7 6 6 7 7 8 8 7 8 8 9 9 9 9 9 10 8 6 6 6 5 3 4 6 8 9 8 8 9 9 8 11 14 15 15 15 16 16 16 16 16 16 16 16 14 13 15 15 15 15 16 17 18 18 16 22 29 32 35 38 39 39 41 43 43 44 44 42 42 42 41
6 6 10 9 7 10 13 14 11 7 7 12 15 12 10 10 9 8 7 7 7 7 7 8 8 8 8 7 7 8 8 7 6 7 8 6 4 4 4 6 8 9 8 8 7 7 9 13 15 16 16 16 17 17 17 16 16 16 16 14 14 15 16 16 16 15 14 14 14 13 17 25 31 35 38 38 38 40 41 43 44 44 42 41 43 43
7 6 7 7 8 13 14 12 6 3 7 14 16 12 11 12 10 8 6 7 8 8 8 8 8 6 6 5 6 7 7 7 7 9 10 9 7 6 7 7 8 8 8 7 7 7 9 11 14 14 15 15 15 15 16 16 15 16 15 13 15 15 15 16 16 13 11 9 9 9 11 17 25 33 40 39 38 39 41 42 44 44 42 39 40 42
9 8 7 8 11 14 13 10 7 5 8 13 14 12 12 13 12 9 5 7 10 9 9 10 8 7 6 6 7 7 6 5 7 8 10 10 8 8 8 9 9 9 9 8 8 9 9 10 11 11 12 14 14 13 13 14 15 16 14 12 13 13 13 13 13 11 9 9 9 7 8 8 13 23 35 42 44 43 40 40 43 44 43 42 40 41
10 10 9 11 14 14 12 10 7 5 10 14 13 11 12 12 13 10 6 7 9 7 8 8 8 7 7 6 7 8 6 5 4 6 9 9 6 4 5 6 7 8 8 9 9 11 10 10 10 10 10 12 12 11 10 10 11 13 13 12 11 11 11 11 11 10 9 10 10 8 5 7 5 13 21 30 41 45 42 42 44 44 44 44 43 41
11 12 11 12 13 12 12 11 8 6 11 15 13 12 13 12 10 9 7 7 7 5 4 6 8 8 7 5 5 4 2 2 1 3 5 5 2 1 3 3 4 4 5 6 7 8 9 9 9 10 9 10 10 8 7 6 6 8 9 10 11 10 9 9 9 8 9 10 9 9 5 4 6 4 11 18 24 30 33 37 41 45 45 44 41 40
11 12 12 13 13 12 11 10 6 5 11 14 13 13 13 11 8 7 7 7 6 6 7 9 10 10 7 6 5 4 2 2 2 1 1 1 2 2 3 3 3 3 3 4 3 4 5 7 8 8 8 8 7 6 5 5 5 5 6 8 9 10 9 10 9 8 9 10 9 8 7 4 1 3 4 6 9 12 14 20 31 44 48 42 36 36
11 12 13 13 12 11 10 9 6 8 13 15 14 13 12 10 9 9 8 7 8 9 9 9 10 10 8 7 6 5 6 5 4 3 3 3 3 2 2 2 2 2 2 1 1 1 3 4 5 5 5 5 5 5 5 5 5 5 6 6 7 8 8 9 10 10 9 9 9 8 7 6 4 2 3 6 9 11 12 10 19 33 37 33 31 33
9 10 11 12 11 11 11 11 9 11 14 15 13 12 12 11 11 10 9 9 11 12 12 11 12 13 13 11 9 9 9 7 6 6 6 5 5 4 3 3 3 3 2 2 2 1 1 1 2 2 2 2 2 3 4 4 4 5 6 6 6 6 6 7 8 9 9 8 7 7 7 6 5 3 1 3 6 10 13 14 14 18 23 26 29 32
9 9 10 12 14 14 13 13 13 14 14 14 14 13 12 12 12 13 13 14 16 17 17 16 17 18 17 14 12 10 10 9 8 8 8 7 6 5 4 4 4 4 4 4 4 4 3 3 3 4 3 3 3 4 4 5 5 5 5 6 6 6 6 6 6 6 7 7 6 5 5 5 4 3 2 0 2 4 6 8 10 13 17 20 22 24
13 12 13 16 19 19 16 14 14 16 16 15 15 15 14 14 15 16 16 16 18 20 19 18 18 18 17 15 12 10 10 10 8 7 6 5 5 4 3 3 4 4 5 5 6 6 6 6 5 5 5 5 4 5 5 6 6 6 5 5 5 6 6 6 6 6 6 7 6 6 5 4 2 1 1 1 1 1 2 3 5 7 10 12 13 14
16 16 17 19 21 20 19 17 16 17 17 15 14 14 14 14 15 15 14 15 17 18 18 18 18 16 14 13 11 9 8 7 6 5 4 3 3 3 3 3 4 5 6 6 7 7 8 7 7 7 7 6 5 5 6 6 6 7 6 5 5 5 6 6 5 5 6 6 6 6 6 6 5 4 3 2 1 1 1 2 3 5 6 7 8 9
17 18 18 19 22 23 22 20 18 19 19 17 15 15 13 12 12 12 13 15 15 15 15 15 15 13 12 11 9 8 6 5 5 5 4 3 3 4 4 5 5 5 6 7 8 8 8 8 9 8 7 7 7 6 6 6 6 6 7 7 6 6 6 7 6 6 6 6 6 6 6 6 6 6 5 5 4 3 3 3 3 4 5 6 7 8
14 16 17 19 22 23 21 17 14 16 19 19 15 14 13 11 10 10 13 15 14 12 12 12 11 11 10 10 10 9 8 6 5 5 6 7 7 7 7 7 7 8 9 11 11 12 12 12 12 11 10 10 9 8 7 7 7 6 6 7 7 7 7 8 9 8 8 8 7 6 6 6 5 5 5 5 5 5 5 5 5 5 5 6 6 7
12 15 16 18 21 21 19 15 11 10 15 18 15 13 13 12 10 12 13 13 12 11 10 10 9 9 9 9 10 11 10 10 9 10 11 13 13 13 12 12 12 12 13 14 14 14 14 15 14 13 13 13 12 11 10 9 9 8 7 7 8 8 8 8 9 9 9 9 9 8 7 7 7 6 5 5 5 6 6 7 7 7 7 7 7 8
Wind_Direction
210 216 219 217 216 214 212 214 216 212 210 215 234 262 269 276 274 276 279 282 294 258 216 214 216 217 242 206 223 293 270 288 260 223 230 246 266 276 279 282 286 280 274 273 273 284 292 294 307 305 294 296 294 289 286 280 270 265 271 280 281 288 322 330 335 337 329 320 280 249 243 243 237 229 224 228 232 229 228 228 227 227 227 224 221 220
212 219 219 215 215 214 215 216 217 218 225 233 243 261 268 273 278 281 287 298 286 234 213 210 207 209 219 201 229 277 247 247 255 247 258 270 272 269 268 269 270 269 268 265 265 275 279 287 307 307 300 306 307 297 285 280 283 281 286 299 305 308 322 330 344 353 343 329 295 271 258 253 247 238 233 234 240 237 232 230 227 228 229 223 219 218
211 222 218 213 214 211 211 213 217 221 225 233 239 258 268 270 281 282 280 341 244 215 209 202 201 217 222 204 260 294 284 277 263 259 269 276 269 261 261 259 255 260 268 271 263 261 270 289 304 303 302 309 315 313 294 284 292 297 302 311 313 313 315 323 345 358 347 338 309 287 273 262 251 242 237 234 239 240 234 230 228 227 228 225 218 215
212 221 212 205 210 209 209 209 213 219 220 226 235 250 262 265 282 278 240 111 95 212 208 201 209 224 218 216 260 296 314 308 279 265 267 279 280 273 269 258 251 261 278 282 266 252 268 290 299 299 295 296 309 326 314 298 300 306 309 311 309 308 305 310 332 342 331 328 313 294 277 264 253 242 237 235 237 236 231 230 230 227 228 226 216 213
202 173 169 191 204 207 207 205 205 211 217 228 238 242 248 250 260 266 257 277 325 342 246 215 221 217 212 228 256 311 342 311 279 264 261 270 277 277 272 262 259 266 273 275 261 250 266 285 294 298 292 287 293 299 291 286 293 303 305 304 303 300 295 298 309 313 309 311 308 296 277 267 260 246 241 242 240 233 229 231 232 229 228 224 215 212
190 126 147 194 202 204 201 201 202 210 226 237 237 231 237 244 250 263 273 286 296 316 342 219 220 210 218 240 263 308 320 301 280 266 263 269 274 279 274 264 263 263 259 257 251 248 260 273 278 286 285 278 270 263 263 270 281 289 291 293 292 286 284 287 283 280 288 299 300 295 281 273 267 257 255 255 249 241 235 235 235 228 224 220 214 212
198 170 212 222 219 214 206 204 206 218 237 238 228 223 233 245 252 261 279 294 285 278 280 261 266 246 254 277 299 303 293 293 289 279 280 281 284 291 289 274 259 254 252 249 247 249 256 263 266 274 281 274 262 255 257 267 279 281 278 278 276 268 268 276 273 265 271 287 289 288 285 282 268 258 258 253 247 241 234 235 236 228 219 214 211 207
207 207 227 233 238 235 229 223 212 216 231 226 220 227 241 248 248 253 282 293 279 262 221 238 268 39 313 316 319 310 300 300 305 301 295 291 287 285 281 269 250 240 241 243 243 245 250 255 257 262 267 264 261 259 258 266 276 277 271 270 275 267 255 262 264 256 258 272 276 279 283 288 275 255 252 245 239 233 228 228 227 216 206 201 200 201
207 220 228 235 240 239 237 227 206 202 216 223 235 245 251 251 243 251 285 291 273 266 226 157 128 100 196 242 305 316 315 311 323 315 294 287 279 270 261 247 232 225 229 229 228 235 245 251 255 261 263 264 266 265 261 265 272 272 268 274 284 274 251 251 254 245 247 259 264 271 278 280 271 254 247 242 235 228 224 220 212 202 196 194 195 200
219 227 237 250 243 236 231 218 206 204 213 231 253 250 242 240 240 256 282 287 266 256 219 180 293 53 161 230 8 10 37 84 114 154 219 250 246 244 244 236 218 204 207 205 208 223 232 239 248 255 260 263 261 253 245 244 257 261 263 272 282 275 258 250 244 236 238 245 252 264 267 261 258 250 243 245 238 227 221 217 209 201 195 194 195 200
232 231 243 256 245 231 221 209 204 207 221 234 242 244 231 229 243 260 268 270 275 256 199 262 278 301 61 37 53 72 89 98 126 146 153 200 221 224 234 238 232 215 195 180 187 204 213 227 237 242 252 258 256 258 263 266 261 256 255 260 264 263 261 258 249 236 234 237 241 252 255 248 247 243 241 249 242 228 222 219 210 200 197 197 197 201
236 237 238 245 244 223 206 197 193 200 222 225 230 245 241 230 233 240 244 238 260 286 229 238 252 263 94 83 76 88 117 131 162 168 168 204 240 239 242 250 260 265 246 210 204 202 197 205 221 232 243 251 256 265 273 268 257 247 246 250 247 244 250 258 256 240 234 236 236 243 248 246 248 242 238 247 241 229 225 219 205 196 198 200 200 202
238 235 227 229 237 220 206 203 200 204 216 218 227 230 219 202 201 219 241 182 177 232 240 242 254 260 106 104 102 122 145 176 202 207 223 234 279 276 268 273 278 288 289 275 262 241 209 198 211 229 234 239 248 254 254 250 241 233 239 244 244 241 240 246 249 242 238 237 232 234 242 245 251 249 241 244 240 229 226 219 203 195 198 201 203 203
243 231 225 227 221 206 201 199 191 195 209 213 217 209 193 129 81 235 273 79 230 247 240 250 255 157 117 107 109 131 134 256 275 293 292 282 287 291 292 289 286 286 284 278 272 257 234 218 223 239 240 239 245 252 258 254 237 230 238 243 241 238 235 236 238 238 239 239 232 230 238 246 253 254 247 248 239 223 217 213 203 199 200 201 202 201
239 235 229 224 212 200 204 206 198 198 206 209 214 218 213 198 153 180 213 175 201 250 233 232 230 162 133 125 134 126 116 283 297 311 313 309 302 301 300 297 295 289 283 276 269 260 250 240 242 253 255 254 254 255 257 251 241 239 240 242 242 238 235 239 242 241 242 244 239 233 239 249 258 261 255 255 242 216 208 208 205 203 202 199 199 201
230 252 231 213 205 204 211 215 212 212 210 210 217 232 225 216 209 206 207 202 183 108 212 192 162 147 142 144 152 147 167 225 270 298 302 303 299 301 302 300 298 294 287 281 277 275 272 267 267 269 267 266 264 259 250 243 246 251 249 248 250 248 241 240 243 246 249 248 241 240 245 251 263 266 256 257 247 217 205 207 210 209 201 195 196 202
221 242 226 208 209 216 221 215 216 225 220 206 214 237 229 216 215 212 209 213 189 119 209 167 134 140 149 151 162 174 200 222 247 268 279 288 288 289 291 292 296 295 290 287 286 287 287 284 282 280 276 273 270 266 260 252 253 258 258 256 259 263 259 250 247 256 263 254 241 242 246 250 262 263 253 251 243 222 209 207 209 211 205 198 197 198
222 234 215 208 214 217 219 216 219 232 223 196 198 227 225 214 214 208 191 172 144 138 222 167 143 152 158 157 177 193 217 232 243 252 258 270 279 284 283 285 293 293 290 290 289 290 290 288 284 282 282 281 278 278 276 267 258 257 256 254 255 259 258 252 249 261 266 253 244 241 243 249 255 256 252 245 235 226 219 213 211 210 206 206 203 195
228 244 214 201 214 204 195 208 210 207 210 202 192 205 215 214 209 199 187 141 135 171 235 123 130 154 167 174 186 197 226 243 254 256 257 263 271 285 289 287 288 283 282 285 285 289 292 289 284 282 284 284 282 285 286 280 271 266 263 259 259 261 262 255 247 248 251 253 251 244 244 249 247 247 248 241 235 230 223 219 217 210 203 204 204 197
210 238 217 192 205 180 173 204 211 201 204 211 211 217 223 224 210 198 197 179 158 173 182 108 110 148 125 106 208 224 239 253 274 276 274 276 281 296 301 294 285 275 268 269 272 279 284 285 284 285 290 292 293 296 297 293 286 281 279 276 274 275 278 279 273 270 274 280 278 258 248 248 245 248 250 243 237 230 221 218 215 210 205 202 197 195
211 223 220 186 191 155 109 131 204 202 208 213 217 221 217 209 206 201 198 186 172 167 150 125 88 168 126 112 235 233 242 259 277 280 282 287 292 306 308 298 292 286 275 273 274 273 275 278 282 292 298 296 298 303 304 303 298 291 290 289 284 277 269 268 274 280 282 278 274 266 257 251 247 251 255 249 236 224 217 216 213 211 206 198 190 192
214 219 221 194 144 107 78 70 102 161 189 195 197 206 206 202 196 179 180 182 164 162 158 142 170 183 152 168 229 229 239 251 271 282 283 288 300 311 311 305 309 309 303 297 285 275 273 272 273 289 298 280 284 293 297 301 300 292 288 285 276 263 251 257 266 272 281 271 259 258 258 251 248 250 253 251 236 221 215 211 211 212 203 194 192 191
199 205 211 200 133 98 83 92 108 124 152 144 121 98 90 216 198 173 165 150 129 123 140 130 128 163 162 197 230 230 240 250 273 288 287 293 305 309 310 315 321 317 318 318 306 289 279 269 260 257 252 242 252 269 278 283 284 282 276 265 256 248 242 251 256 255 294 296 260 248 248 243 244 246 249 252 234 218 214 208 208 209 200 196 195 188
178 185 195 191 160 143 122 117 118 129 172 169 120 83 66 54 151 159 156 146 129 127 141 123 97 161 173 208 231 233 248 260 275 286 293 305 310 307 308 312 306 307 317 315 305 296 284 273 259 246 238 234 238 245 248 237 218 220 237 239 242 242 237 244 248 240 259 318 244 230 237 235 235 238 244 251 234 213 210 207 205 207 204 201 195 186
176 178 183 169 140 165 165 160 158 130 134 129 91 72 69 74 91 141 151 152 137 147 160 145 121 165 183 214 229 232 244 255 266 280 301 313 313 312 312 305 292 292 298 295 294 293 286 280 278 273 261 233 222 230 238 234 225 221 221 227 235 238 235 238 241 233 230 231 199 206 214 214 219 225 234 246 233 213 208 204 201 206 208 199 189 187
186 185 183 172 129 147 164 174 189 190 83 86 78 51 50 70 71 131 168 178 166 163 169 154 143 159 184 213 225 231 239 248 260 272 294 305 308 317 319 300 279 278 283 285 285 288 287 289 295 297 305 318 221 231 241 241 237 231 228 230 234 237 235 233 234 230 224 213 197 199 204 207 211 211 218 235 229 213 208 203 201 206 207 197 188 190
184 175 185 211 176 130 126 124 135 225 282 79 246 300 334 38 51 125 174 192 180 169 164 159 161 166 182 208 221 231 238 244 255 264 277 289 300 307 301 281 255 258 272 287 291 298 297 298 300 298 304 309 289 278 267 257 251 245 237 236 237 239 236 231 229 229 225 212 199 199 204 210 213 208 204 218 224 215 209 206 204 205 204 202 196 193
170 150 145 158 125 104 106 113 128 179 218 189 222 270 273 263 232 213 214 195 180 173 154 159 172 174 182 204 217 225 232 239 252 266 275 280 292 305 302 300 294 271 260 291 334 337 327 323 321 318 344 22 61 6 306 284 271 262 253 248 245 244 242 236 230 229 225 218 213 211 210 214 221 214 199 200 216 217 211 208 209 207 203 199 197 197
156 135 122 125 114 102 111 133 156 168 157 159 162 164 226 242 237 234 221 189 185 190 172 170 179 184 189 204 214 219 226 238 252 264 272 275 284 297 302 310 321 324 325 29 24 355 343 352 11 53 39 23 12 349 334 326 308 288 278 269 260 257 253 247 239 234 231 229 229 229 225 224 229 221 202 197 210 214 212 210 211 213 206 195 192 199
142 124 121 133 126 119 150 176 178 166 138 139 140 130 166 251 225 189 183 180 187 193 188 185 186 187 193 205 214 220 229 244 257 266 273 274 274 284 298 311 327 331 338 17 24 352 353 21 96 98 38 357 348 343 339 342 339 331 315 296 280 272 265 259 251 242 237 237 238 239 235 231 230 222 207 202 208 211 212 211 211 213 207 193 193 200
143 126 129 147 131 125 155 171 159 168 162 147 137 124 113 100 117 144 151 154 162 170 183 191 188 183 188 199 205 215 228 244 260 274 281 274 274 291 308 322 329 328 339 6 12 357 12 8 353 4 346 324 320 325 332 342 341 340 336 321 307 294 280 271 262 251 243 239 239 239 236 232 227 219 210 206 209 210 210 212 214 212 202 192 198 202
150 137 142 157 136 130 151 168 158 165 167 151 137 127 128 141 153 152 143 136 147 160 175 188 186 182 186 197 208 224 234 245 259 270 276 280 287 302 309 312 319 326 336 347 354 359 355 338 329 328 323 320 326 327 329 330 329 335 339 332 324 317 304 289 276 265 254 246 241 240 237 232 226 217 210 208 209 210 208 210 215 215 201 194 201 204
146 148 148 156 143 140 153 169 161 156 150 129 114 109 125 196 190 156 152 156 163 170 182 196 192 184 183 199 223 239 248 256 258 256 266 275 270 271 285 294 306 319 326 329 338 352 351 343 335 324 317 324 335 334 329 326 326 334 338 333 328 327 323 312 299 286 271 255 246 243 240 233 225 217 212 209 211 212 210 208 214 216 207 198 201 205
133 148 148 148 148 150 162 174 167 151 127 108 112 111 226 256 251 218 181 173 168 170 187 202 197 191 199 225 238 245 252 258 254 252 270 274 260 278 311 313 308 310 321 335 344 346 347 347 344 338 337 343 342 340 341 341 339 338 339 337 333 330 328 324 318 308 292 269 249 242 240 234 226 219 214 211 212 214 212 210 214 217 211 205 205 206
140 148 146 137 141 154 166 172 167 117 116 137 136 142 167 226 276 259 172 160 159 162 176 188 193 200 213 227 240 248 245 244 249 252 261 267 275 313 332 321 306 303 313 334 345 344 344 346 345 342 346 350 347 347 351 350 346 342 340 338 333 328 325 323 321 316 307 291 258 240 236 234 230 224 217 213 213 214 214 213 215 216 212 209 208 209
158 155 151 133 130 149 165 166 150 129 138 147 148 146 151 164 237 177 147 153 166 171 184 205 219 228 238 243 253 261 251 237 241 243 234 236 270 312 321 302 289 292 305 320 331 336 341 346 346 343 344 348 351 353 352 348 344 342 342 340 332 326 323 321 318 316 314 310 291 251 234 232 231 225 219 216 215 215 216 215 215 215 212 209 210 212
181 171 168 151 139 155 148 118 121 134 143 163 171 165 168 175 179 176 167 169 179 181 192 216 228 236 248 255 260 264 254 235 228 228 213 204 249 305 316 298 284 281 288 298 306 321 337 342 340 340 342 347 353 355 352 346 342 340 342 342 337 327 322 317 313 314 315 315 311 281 242 232 232 225 219 218 219 218 218 216 216 215 212 209 209 212
199 191 180 171 165 167 145 119 123 146 169 186 187 184 189 188 183 189 195 196 196 196 204 221 233 242 248 250 250 251 243 226 217 218 210 205 231 266 285 289 285 283 287 293 299 318 333 331 329 333 338 343 350 352 350 347 344 343 343 343 340 332 324 318 312 312 317 314 306 285 242 223 223 223 220 219 220 221 220 217 215 216 214 210 210 214
190 189 187 182 175 172 157 136 145 191 185 191 195 192 194 198 191 186 203 218 213 215 225 228 233 244 247 241 234 232 230 227 228 226 219 215 223 232 238 248 260 267 270 274 285 303 316 317 321 329 333 336 341 343 344 345 342 341 339 336 336 336 332 325 319 318 323 320 306 284 242 208 202 209 215 218 219 220 219 215 214 216 217 215 213 214
197 199 199 186 173 173 165 144 145 178 186 191 193 183 187 199 191 179 199 216 208 220 241 233 222 221 223 224 229 233 240 253 260 251 236 227 221 221 226 230 236 244 244 244 258 276 290 302 312 320 324 327 328 330 336 339 334 330 328 326 330 334 334 336 335 335 337 335 329 303 257 210 168 176 195 207 212 212 213 213 214 217 217 216 213 212
181 179 179 175 169 175 174 150 141 177 182 177 177 181 188 192 188 191 203 201 204 231 248 225 203 194 195 209 225 235 253 276 282 259 241 236 232 231 241 242 240 241 241 245 258 268 276 290 299 303 308 311 312 315 324 330 326 323 322 327 331 329 330 347 358 355 346 340 344 345 283 239 176 132 149 175 193 200 204 208 214 219 216 213 213 214
158 150 153 161 161 170 172 151 134 157 171 169 171 179 183 183 191 207 206 190 199 219 202 173 167 171 181 196 206 211 233 256 241 229 236 245 264 313 321 308 289 280 273 272 277 280 281 285 284 282 284 284 284 289 296 306 318 324 327 333 338 333 335 356 11 10 358 348 348 358 352 253 221 163 116 129 155 175 183 189 203 216 216 210 209 213
159 147 145 150 152 156 154 140 134 161 169 170 171 172 178 185 194 196 184 176 179 163 137 136 150 163 169 172 172 164 142 130 132 155 204 354 19 11 360 351 339 333 317 298 290 284 279 272 260 254 251 250 252 256 259 270 293 315 328 336 343 347 350 353 0 11 12 4 360 0 360 352 281 223 200 158 147 155 158 162 180 198 207 208 206 207
158 153 154 157 158 160 152 145 165 180 171 173 178 180 182 182 176 171 166 160 153 138 129 141 156 153 141 131 129 119 104 98 97 96 86 64 44 20 10 9 360 358 349 326 285 239 244 245 239 232 228 233 242 247 255 268 282 300 317 331 342 351 354 348 348 358 4 5 10 12 8 1 357 352 225 230 234 232 233 213 187 190 201 209 211 208
154 158 167 170 171 170 160 150 157 166 168 172 179 182 178 167 155 151 147 143 137 126 122 131 135 123 108 100 96 96 97 97 98 97 92 87 86 82 74 64 53 49 41 28 22 3 310 279 270 269 261 266 276 279 283 291 297 307 320 329 336 342 344 341 342 345 348 352 360 7 17 24 15 9 3 254 253 246 244 243 228 213 212 212 210 209
140 155 171 167 153 142 133 128 133 142 149 155 158 158 158 149 136 132 134 136 131 121 117 119 116 108 100 93 89 91 96 98 101 103 105 108 107 99 88 75 59 50 42 30 21 15 11 10 360 348 344 340 334 333 331 331 336 337 335 337 340 340 337 333 331 331 331 335 341 344 358 22 34 34 40 360 255 254 247 238 231 226 222 218 217 219
131 148 158 154 144 133 122 120 126 129 130 136 141 142 143 138 130 130 136 135 125 116 111 109 104 100 97 94 91 93 96 98 100 103 106 107 105 99 86 66 43 28 19 8 1 1 1 4 7 3 357 353 350 351 355 355 353 349 345 347 348 345 337 330 328 326 321 316 321 328 329 334 347 11 47 94 164 193 202 200 200 204 208 213 221 227
137 144 145 144 139 131 125 125 128 125 123 125 129 130 130 130 129 130 130 123 114 109 106 103 99 98 98 98 97 96 94 93 90 88 86 72 52 35 20 14 13 13 12 6 359 355 350 349 359 3 352 344 345 348 350 352 350 345 343 348 348 339 332 329 326 325 321 313 315 322 325 327 329 324 314 303 276 249 222 201 194 190 189 193 200 206
141 143 145 146 138 128 126 131 135 132 126 121 120 119 118 121 127 127 118 108 104 103 105 106 109 111 112 113 113 107 98 85 70 63 59 51 36 19 7 11 22 27 26 25 22 14 2 355 4 10 354 335 332 332 331 329 332 333 333 330 325 316 313 313 314 314 315 315 316 319 320 322 322 322 322 317 305 292 279 264 248 229 217 213 212 211
145 145 148 149 137 125 123 129 137 137 130 122 120 119 116 117 121 119 114 112 112 112 113 115 120 125 126 125 121 114 108 105 95 79 70 66 62 57 51 47 46 44 39 33 26 19 12 6 7 9 1 345 336 332 327 323 321 319 316 310 304 301 300 300 301 305 307 306 305 303 305 308 307 305 306 303 297 291 282 275 272 265 256 248 240 236
129 131 137 140 132 122 119 120 131 145 135 124 122 120 115 112 113 114 114 116 119 122 124 125 127 128 129 124 116 108 99 92 85 75 69 66 64 62 59 53 46 43 39 31 20 13 11 8 4 2 359 353 347 343 341 337 328 320 317 309 297 290 285 282 286 292 295 294 294 292 289 286 285 284 281 279 280 282 280 275 272 268 266 264 259 253
Height
3096 3097 3096 3097 3098 3101 3104 3105 3108 3110 3111 3112 3113 3114 3114 3112 3111 3112 3113 3113 3113 3111 3111 3113 3115 3117 3119 3120 3120 3120 3120 3121 3121 3122 3123 3124 3125 3126 3126 3127 3128 3128 3128 3129 3129 3130 3130 3130 3131 3132 3133 3134 3134 3134 3135 3135 3136 3137 3138 3137 3136 3137 3137 3138 3138 3138 3138 3138 3138 3138 3138 3138 3139 3139 3140 3140 3140 3139 3140 3142 3143 3144 3145 3147 3148 3149
3095 3094 3094 3095 3098 3101 3103 3106 3108 3109 3111 3112 3113 3114 3113 3111 3110 3110 3111 3111 3110 3110 3111 3113 3115 3117 3119 3119 3120 3121 3121 3122 3122 3123 3123 3124 3124 3125 3125 3125 3126 3126 3126 3127 3128 3128 3128 3129 3129 3130 3131 3132 3133 3133 3134 3134 3135 3135 3136 3136 3136 3136 3137 3137 3137 3137 3137 3137 3138 3138 3138 3138 3137 3137 3138 3138 3139 3139 3140 3140 3141 3142 3143 3145 3146 3147
3093 3091 3092 3095 3098 3100 3102 3105 3106 3108 3110 3111 3112 3113 3112 3110 3109 3108 3110 3109 3108 3110 3112 3113 3115 3117 3118 3119 3120 3120 3121 3122 3122 3122 3121 3121 3121 3122 3122 3123 3124 3125 3125 3126 3126 3126 3126 3127 3128 3129 3130 3131 3132 3132 3133 3133 3133 3133 3134 3134 3134 3135 3136 3135 3135 3136 3136 3136 3137 3137 3137 3137 3136 3136 3136 3136 3136 3137 3138 3139 3139 3140 3141 3143 3145 3146
3090 3089 3092 3096 3097 3099 3100 3102 3104 3106 3108 3109 3111 3112 3111 3109 3108 3108 3109 3108 3108 3111 3113 3114 3115 3116 3117 3119 3119 3120 3120 3120 3120 3119 3118 3117 3117 3118 3119 3121 3122 3124 3124 3124 3124 3124 3125 3125 3126 3127 3129 3130 3131 3132 3131 3131 3131 3132 3132 3132 3133 3134 3134 3134 3134 3135 3135 3135 3135 3136 3136 3135 3134 3134 3134 3133 3133 3134 3135 3136 3137 3138 3139 3141 3143 3144
3088 3088 3091 3094 3096 3097 3099 3101 3103 3104 3106 3107 3109 3110 3109 3108 3108 3107 3108 3109 3109 3110 3112 3113 3115 3115 3117 3118 3118 3119 3119 3117 3116 3115 3115 3115 3115 3116 3117 3119 3121 3123 3123 3123 3123 3122 3123 3124 3125 3126 3127 3129 3130 3130 3130 3129 3130 3131 3131 3131 3131 3132 3132 3133 3133 3133 3134 3134 3134 3134 3134 3133 3132 3132 3131 3131 3131 3132 3133 3134 3135 3136 3137 3139 3141 3143
3088 3088 3090 3093 3094 3096 3098 3099 3101 3103 3104 3106 3106 3107 3107 3107 3107 3108 3108 3109 3109 3110 3111 3112 3114 3115 3116 3117 3118 3118 3117 3114 3114 3114 3114 3113 3113 3114 3116 3118 3120 3121 3122 3122 3122 3121 3121 3122 3123 3125 3127 3128 3129 3129 3128 3128 3129 3129 3129 3129 3130 3130 3130 3131 3132 3132 3132 3132 3132 3132 3131 3130 3130 3129 3129 3130 3131 3131 3132 3133 3133 3134 3135 3137 3139 3141
3086 3088 3090 3092 3094 3096 3097 3098 3100 3101 3103 3104 3104 3105 3105 3106 3107 3107 3108 3109 3110 3110 3111 3111 3113 3114 3115 3116 3117 3116 3115 3113 3113 3114 3114 3113 3112 3112 3113 3115 3117 3119 3119 3119 3120 3121 3121 3122 3122 3123 3125 3126 3127 3127 3127 3127 3128 3128 3127 3127 3127 3127 3128 3129 3129 3130 3130 3130 3130 3129 3128 3128 3127 3126 3127 3128 3129 3130 3130 3131 3131 3132 3133 3135 3137 3140
3085 3087 3089 3091 3093 3094 3096 3096 3098 3100 3101 3102 3103 3104 3104 3104 3105 3106 3107 3108 3109 3110 3111 3111 3112 3113 3114 3116 3116 3113 3113 3113 3113 3114 3114 3113 3112 3112 3111 3111 3113 3115 3115 3116 3118 3119 3120 3120 3120 3121 3123 3124 3125 3126 3126 3126 3126 3126 3126 3126 3126 3126 3126 3126 3127 3127 3128 3127 3127 3127 3126 3126 3125 3124 3125 3126 3127 3127 3128 3129 3130 3131 3132 3133 3137 3139
3085 3086 3087 3090 3091 3092 3093 3094 3096 3098 3099 3100 3101 3102 3102 3102 3104 3105 3105 3106 3107 3109 3110 3110 3111 3112 3113 3115 3114 3112 3112 3112 3113 3113 3113 3113 3112 3111 3110 3110 3111 3112 3113 3114 3116 3117 3119 3119 3119 3121 3122 3123 3124 3124 3123 3123 3124 3124 3124 3125 3125 3125 3125 3124 3124 3124 3124 3124 3125 3125 3125 3124 3123 3122 3122 3123 3124 3125 3126 3127 3128 3129 3130 3132 3136 3138
3084 3085 3087 3089 3090 3091 3091 3092 3095 3097 3098 3099 3099 3100 3101 3102 3102 3103 3104 3104 3104 3106 3107 3108 3108 3110 3112 3113 3112 3112 3112 3112 3113 3113 3112 3112 3112 3111 3110 3110 3110 3110 3111 3113 3114 3116 3116 3117 3117 3119 3120 3121 3121 3120 3117 3118 3120 3122 3122 3122 3122 3122 3122 3121 3121 3121 3121 3121 3122 3123 3124 3123 3121 3120 3120 3121 3122 3122 3123 3124 3126 3128 3130 3132 3135 3137
3082 3084 3086 3087 3088 3089 3090 3091 3094 3096 3097 3098 3098 3099 3099 3101 3102 3102 3102 3102 3103 3104 3104 3105 3106 3108 3111 3113 3112 3112 3112 3112 3112 3112 3112 3112 3111 3111 3110 3110 3110 3110 3110 3111 3113 3114 3114 3115 3116 3117 3118 3118 3118 3117 3116 3117 3118 3119 3119 3119 3119 3118 3119 3119 3118 3118 3118 3117 3118 3120 3122 3121 3120 3119 3119 3119 3119 3119 3121 3122 3124 3127 3129 3131 3134 3136
3080 3082 3084 3085 3086 3087 3089 3091 3092 3094 3095 3096 3097 3097 3099 3100 3101 3102 3102 3102 3104 3104 3104 3105 3106 3107 3111 3114 3113 3112 3112 3112 3112 3112 3112 3111 3111 3110 3110 3110 3110 3110 3111 3111 3112 3112 3113 3115 3116 3116 3116 3116 3116 3116 3116 3115 3114 3115 3115 3116 3116 3115 3115 3116 3116 3115 3114 3114 3114 3116 3118 3119 3118 3117 3117 3118 3117 3117 3118 3120 3122 3125 3128 3130 3132 3134
3079 3080 3082 3084 3085 3086 3088 3089 3090 3092 3093 3094 3095 3096 3097 3099 3101 3102 3102 3103 3104 3105 3104 3105 3106 3107 3111 3114 3113 3112 3111 3111 3111 3111 3111 3111 3110 3109 3109 3110 3110 3110 3110 3111 3112 3112 3113 3114 3114 3114 3113 3114 3113 3111 3110 3110 3110 3111 3113 3113 3112 3111 3110 3111 3112 3112 3111 3110 3110 3112 3114 3116 3116 3116 3116 3116 3116 3116 3117 3120 3121 3123 3126 3128 3131 3133
3078 3079 3080 3082 3084 3084 3086 3087 3088 3090 3092 3093 3094 3095 3096 3098 3101 3103 3103 3104 3104 3103 3103 3104 3105 3107 3111 3113 3113 3111 3110 3110 3110 3110 3110 3111 3110 3109 3108 3109 3109 3109 3109 3110 3110 3111 3111 3112 3112 3112 3111 3111 3110 3108 3109 3111 3109 3107 3108 3109 3107 3107 3106 3107 3108 3108 3108 3107 3106 3108 3111 3113 3114 3115 3115 3115 3115 3116 3117 3119 3121 3122 3125 3127 3130 3132
3078 3078 3078 3080 3082 3083 3084 3086 3088 3089 3090 3092 3093 3094 3094 3095 3099 3101 3102 3102 3102 3102 3102 3103 3104 3107 3109 3111 3112 3111 3110 3109 3109 3110 3110 3109 3109 3108 3107 3107 3107 3107 3107 3107 3107 3108 3108 3109 3109 3109 3108 3108 3107 3106 3107 3108 3106 3103 3104 3103 3101 3102 3104 3105 3105 3105 3104 3105 3107 3109 3110 3112 3112 3113 3114 3115 3115 3116 3117 3118 3120 3121 3123 3126 3128 3130
3077 3077 3077 3079 3081 3082 3083 3085 3087 3088 3089 3091 3092 3092 3093 3093 3095 3098 3099 3100 3101 3101 3102 3103 3105 3106 3107 3109 3111 3111 3109 3109 3109 3109 3109 3108 3107 3107 3106 3106 3106 3106 3105 3105 3105 3105 3105 3106 3106 3106 3106 3105 3104 3104 3103 3103 3103 3103 3104 3102 3101 3102 3105 3106 3105 3103 3102 3105 3109 3109 3109 3110 3111 3112 3113 3113 3115 3116 3116 3117 3118 3119 3121 3123 3125 3127
3076 3076 3077 3079 3079 3081 3083 3084 3085 3087 3087 3089 3090 3091 3092 3093 3094 3095 3097 3099 3100 3102 3102 3102 3104 3106 3107 3109 3110 3110 3109 3108 3108 3109 3109 3107 3107 3106 3106 3105 3105 3104 3104 3104 3104 3104 3103 3103 3104 3104 3104 3103 3102 3102 3101 3101 3103 3104 3104 3103 3103 3104 3105 3104 3103 3102 3103 3106 3108 3107 3107 3109 3110 3111 3111 3112 3113 3114 3114 3114 3115 3118 3120 3120 3121 3124
3075 3075 3076 3077 3078 3080 3082 3083 3084 3085 3086 3087 3089 3089 3091 3093 3093 3093 3095 3098 3101 3102 3102 3101 3103 3105 3106 3107 3108 3108 3108 3108 3108 3108 3107 3107 3106 3105 3105 3104 3104 3103 3103 3103 3103 3103 3102 3102 3102 3102 3102 3101 3101 3100 3100 3101 3102 3103 3102 3102 3102 3101 3101 3101 3102 3102 3102 3104 3104 3104 3106 3108 3109 3109 3109 3110 3110 3111 3113 3113 3113 3117 3119 3120 3120 3122
3074 3075 3075 3076 3078 3079 3081 3082 3083 3084 3085 3087 3088 3088 3089 3090 3091 3092 3094 3096 3099 3101 3101 3102 3103 3104 3105 3106 3106 3107 3107 3106 3106 3105 3105 3105 3105 3104 3104 3104 3104 3102 3101 3102 3102 3102 3101 3101 3101 3101 3101 3100 3100 3100 3100 3100 3101 3100 3100 3100 3099 3097 3097 3099 3100 3099 3099 3100 3101 3103 3107 3108 3108 3108 3107 3107 3107 3109 3111 3112 3113 3116 3117 3116 3118 3121
3074 3074 3075 3075 3076 3078 3080 3081 3082 3083 3084 3085 3086 3087 3087 3088 3089 3090 3092 3093 3095 3097 3100 3102 3105 3105 3105 3105 3105 3105 3105 3104 3103 3103 3103 3103 3103 3103 3103 3103 3102 3101 3100 3101 3101 3101 3100 3100 3101 3101 3100 3100 3099 3099 3099 3099 3099 3099 3098 3098 3097 3096 3096 3098 3099 3099 3099 3100 3102 3105 3106 3106 3107 3106 3106 3106 3107 3108 3109 3111 3113 3115 3115 3116 3117 3121
3073 3074 3074 3075 3076 3077 3079 3080 3080 3081 3081 3082 3083 3084 3085 3086 3088 3089 3090 3091 3091 3094 3097 3101 3104 3105 3105 3105 3105 3104 3103 3103 3102 3101 3101 3102 3102 3103 3102 3101 3101 3100 3099 3099 3099 3099 3099 3099 3100 3100 3099 3098 3098 3098 3098 3098 3098 3097 3097 3097 3096 3096 3097 3098 3099 3099 3100 3100 3102 3103 3104 3104 3105 3104 3105 3106 3107 3107 3108 3110 3111 3112 3115 3117 3118 3121
3071 3073 3074 3075 3076 3077 3078 3079 3079 3079 3079 3080 3081 3082 3083 3085 3086 3087 3089 3090 3090 3091 3093 3097 3101 3104 3104 3104 3104 3103 3102 3102 3101 3101 3101 3101 3102 3102 3101 3100 3099 3098 3098 3098 3098 3097 3097 3097 3098 3099 3098 3098 3098 3097 3097 3096 3096 3096 3096 3096 3096 3096 3097 3097 3097 3097 3098 3098 3099 3101 3102 3102 3103 3102 3103 3105 3106 3105 3106 3107 3109 3111 3113 3115 3117 3120
3070 3071 3073 3074 3076 3077 3078 3079 3080 3079 3078 3078 3079 3081 3083 3084 3085 3086 3088 3089 3089 3091 3092 3093 3098 3102 3103 3103 3102 3101 3101 3101 3101 3100 3100 3101 3101 3101 3100 3100 3099 3098 3097 3097 3097 3096 3096 3096 3097 3098 3098 3097 3097 3096 3095 3095 3095 3095 3094 3094 3093 3094 3095 3095 3095 3095 3095 3095 3096 3099 3100 3100 3101 3101 3101 3103 3104 3103 3104 3106 3108 3109 3110 3112 3115 3118
3069 3070 3072 3073 3075 3076 3077 3079 3079 3078 3078 3078 3079 3081 3082 3084 3085 3085 3086 3087 3088 3090 3092 3093 3097 3101 3102 3101 3100 3100 3100 3100 3100 3100 3100 3100 3100 3100 3100 3100 3099 3098 3098 3097 3096 3096 3096 3096 3097 3097 3097 3096 3096 3095 3093 3093 3093 3093 3092 3092 3091 3091 3092 3092 3092 3092 3093 3093 3095 3098 3098 3098 3100 3100 3099 3100 3101 3101 3102 3104 3106 3107 3108 3110 3113 3116
3068 3069 3070 3072 3074 3075 3077 3079 3079 3078 3078 3079 3080 3081 3083 3084 3085 3086 3086 3087 3088 3090 3091 3092 3096 3099 3099 3099 3099 3099 3099 3099 3100 3100 3100 3099 3099 3099 3099 3099 3099 3098 3098 3097 3096 3096 3095 3095 3095 3095 3096 3095 3094 3093 3092 3092 3092 3091 3091 3090 3090 3089 3090 3090 3090 3091 3091 3091 3093 3094 3095 3095 3096 3096 3097 3097 3098 3099 3100 3101 3103 3105 3107 3109 3111 3114
3068 3069 3070 3070 3072 3073 3075 3078 3079 3079 3079 3080 3081 3082 3084 3085 3086 3086 3087 3087 3088 3089 3090 3091 3094 3097 3098 3098 3098 3097 3097 3098 3099 3100 3100 3099 3098 3098 3098 3098 3098 3098 3097 3097 3096 3095 3095 3094 3094 3094 3094 3093 3093 3092 3091 3091 3091 3090 3089 3089 3088 3088 3089 3089 3089 3090 3090 3090 3089 3091 3091 3092 3092 3092 3094 3095 3096 3097 3098 3099 3101 3103 3106 3108 3109 3111
3067 3069 3070 3070 3071 3072 3074 3076 3078 3078 3079 3080 3081 3082 3084 3086 3086 3087 3087 3087 3087 3088 3089 3090 3091 3094 3096 3096 3096 3097 3097 3097 3098 3099 3099 3099 3098 3097 3097 3097 3097 3097 3097 3096 3096 3095 3094 3094 3093 3093 3092 3092 3092 3091 3090 3089 3089 3089 3088 3088 3087 3087 3087 3088 3088 3089 3089 3088 3086 3086 3088 3089 3089 3089 3089 3092 3094 3096 3096 3098 3100 3101 3103 3106 3107 3109
3066 3068 3070 3071 3072 3072 3073 3075 3076 3077 3078 3079 3080 3081 3084 3086 3086 3087 3087 3087 3087 3087 3089 3091 3091 3091 3093 3094 3094 3095 3096 3096 3097 3097 3097 3097 3098 3097 3097 3096 3096 3096 3096 3095 3095 3094 3094 3093 3093 3092 3092 3091 3091 3090 3089 3088 3088 3087 3087 3086 3086 3085 3085 3086 3086 3086 3086 3085 3084 3084 3086 3087 3087 3086 3087 3089 3092 3094 3095 3097 3098 3099 3100 3102 3105 3108
3065 3067 3070 3070 3072 3073 3074 3075 3076 3076 3078 3078 3079 3081 3083 3085 3085 3086 3086 3086 3086 3086 3087 3089 3090 3090 3091 3092 3093 3094 3094 3095 3096 3096 3095 3096 3097 3097 3097 3096 3096 3095 3095 3095 3094 3094 3094 3093 3093 3092 3092 3091 3090 3089 3089 3088 3087 3086 3086 3085 3085 3084 3083 3083 3084 3084 3083 3083 3084 3085 3087 3087 3087 3088 3088 3089 3091 3092 3094 3095 3097 3099 3101 3101 3103 3107
3064 3067 3069 3069 3071 3074 3075 3075 3076 3077 3078 3079 3081 3082 3084 3084 3084 3084 3084 3085 3085 3086 3086 3086 3088 3090 3091 3092 3092 3093 3093 3094 3094 3094 3094 3095 3095 3096 3096 3096 3095 3095 3094 3094 3094 3094 3094 3093 3093 3092 3091 3091 3090 3089 3088 3087 3086 3085 3084 3084 3083 3083 3081 3081 3081 3082 3082 3082 3082 3083 3085 3085 3086 3088 3089 3089 3090 3090 3092 3094 3094 3097 3101 3102 3103 3105
3064 3067 3069 3069 3071 3074 3075 3075 3076 3077 3078 3080 3082 3084 3085 3085 3085 3084 3084 3084 3085 3085 3086 3086 3087 3089 3090 3091 3092 3092 3092 3093 3093 3093 3094 3094 3095 3095 3095 3095 3095 3094 3094 3093 3093 3093 3093 3093 3092 3092 3091 3090 3089 3088 3087 3086 3085 3084 3083 3082 3082 3081 3080 3079 3078 3078 3079 3079 3078 3079 3081 3082 3084 3086 3087 3088 3088 3088 3090 3091 3091 3093 3098 3100 3101 3103
3064 3067 3068 3069 3071 3074 3076 3076 3077 3078 3079 3081 3082 3084 3085 3085 3085 3085 3085 3085 3086 3086 3087 3088 3088 3088 3090 3091 3092 3092 3092 3092 3093 3093 3094 3094 3094 3094 3094 3094 3094 3094 3093 3093 3093 3093 3093 3092 3092 3091 3090 3089 3088 3087 3086 3085 3084 3083 3082 3081 3080 3080 3079 3078 3076 3075 3075 3075 3076 3076 3078 3079 3081 3083 3084 3085 3085 3085 3087 3088 3089 3092 3095 3096 3098 3102
3065 3067 3068 3069 3071 3074 3076 3077 3077 3078 3080 3082 3083 3084 3084 3085 3085 3085 3085 3086 3086 3087 3088 3088 3088 3089 3089 3090 3090 3091 3091 3092 3092 3093 3093 3093 3094 3094 3094 3094 3094 3093 3093 3092 3092 3092 3092 3091 3091 3090 3089 3088 3087 3086 3085 3083 3082 3081 3080 3079 3079 3078 3077 3077 3075 3073 3071 3071 3072 3074 3075 3076 3079 3080 3081 3082 3083 3083 3085 3086 3087 3090 3092 3093 3096 3100
3066 3067 3069 3070 3071 3074 3076 3077 3078 3079 3081 3083 3084 3084 3084 3085 3085 3085 3085 3085 3086 3087 3087 3088 3088 3089 3089 3089 3090 3090 3091 3091 3092 3093 3093 3093 3093 3093 3093 3094 3093 3093 3092 3092 3091 3091 3090 3090 3089 3088 3087 3087 3085 3084 3083 3082 3081 3080 3079 3077 3076 3076 3075 3074 3073 3071 3069 3068 3068 3070 3071 3072 3073 3075 3077 3079 3080 3081 3083 3085 3086 3087 3090 3092 3095 3098
3067 3068 3069 3070 3072 3074 3076 3077 3079 3081 3083 3083 3084 3084 3085 3085 3085 3084 3085 3085 3086 3087 3087 3087 3088 3088 3089 3089 3089 3090 3090 3091 3092 3092 3093 3093 3093 3093 3093 3093 3093 3092 3092 3091 3090 3090 3089 3089 3088 3087 3086 3086 3085 3083 3082 3080 3080 3079 3077 3076 3075 3074 3073 3072 3070 3069 3067 3065 3065 3066 3067 3068 3068 3069 3072 3074 3076 3078 3080 3082 3083 3085 3087 3090 3093 3096
3067 3068 3069 3071 3072 3074 3076 3077 3078 3081 3083 3083 3083 3084 3084 3084 3085 3084 3085 3085 3086 3086 3087 3087 3087 3087 3088 3089 3089 3089 3090 3090 3091 3091 3092 3092 3092 3092 3092 3092 3092 3091 3091 3090 3090 3089 3089 3088 3087 3086 3085 3084 3083 3082 3081 3080 3079 3078 3076 3075 3074 3072 3071 3070 3068 3066 3064 3063 3062 3062 3062 3063 3064 3064 3067 3070 3073 3075 3077 3079 3081 3083 3085 3088 3091 3094
3067 3068 3069 3071 3072 3074 3075 3077 3079 3081 3082 3083 3083 3083 3083 3084 3084 3085 3085 3085 3085 3086 3086 3086 3087 3087 3087 3088 3088 3089 3089 3089 3089 3090 3090 3091 3091 3092 3092 3091 3091 3091 3090 3090 3089 3089 3088 3087 3086 3085 3085 3084 3083 3082 3080 3079 3078 3076 3075 3074 3073 3072 3070 3068 3067 3065 3063 3061 3059 3058 3058 3059 3060 3061 3063 3066 3069 3071 3073 3076 3079 3081 3084 3086 3088 3091
3067 3068 3069 3070 3072 3073 3074 3076 3080 3081 3081 3081 3081 3082 3083 3083 3084 3084 3085 3085 3085 3085 3085 3085 3085 3086 3086 3087 3087 3088 3088 3088 3088 3089 3089 3089 3090 3090 3091 3091 3090 3090 3090 3089 3089 3088 3088 3087 3086 3085 3084 3083 3083 3082 3080 3079 3077 3076 3075 3073 3072 3070 3069 3067 3065 3064 3063 3061 3058 3057 3056 3056 3057 3058 3060 3062 3065 3068 3070 3073 3076 3079 3081 3083 3085 3087
3067 3068 3068 3069 3071 3072 3072 3074 3078 3079 3078 3079 3080 3081 3082 3083 3083 3084 3084 3084 3084 3084 3084 3084 3084 3085 3085 3086 3086 3087 3087 3088 3088 3088 3088 3088 3088 3089 3089 3089 3089 3089 3089 3089 3088 3088 3087 3086 3086 3085 3084 3083 3083 3082 3080 3079 3077 3076 3074 3073 3071 3069 3068 3066 3064 3062 3062 3061 3059 3058 3057 3055 3055 3055 3057 3059 3061 3064 3067 3070 3073 3076 3079 3082 3084 3085
3066 3067 3068 3069 3070 3071 3071 3073 3075 3077 3077 3078 3079 3080 3081 3082 3083 3084 3083 3082 3082 3082 3082 3082 3083 3084 3085 3085 3086 3086 3087 3087 3087 3087 3088 3088 3087 3087 3088 3088 3088 3088 3088 3088 3087 3087 3086 3086 3085 3085 3084 3084 3083 3082 3080 3079 3077 3076 3074 3073 3071 3070 3068 3066 3063 3062 3061 3061 3060 3059 3059 3058 3056 3054 3054 3056 3058 3060 3064 3067 3070 3073 3076 3079 3081 3082
3065 3066 3067 3068 3069 3070 3071 3072 3074 3075 3076 3077 3079 3080 3081 3081 3082 3082 3081 3080 3081 3081 3081 3081 3082 3083 3084 3085 3086 3086 3087 3087 3087 3087 3087 3087 3087 3087 3088 3088 3088 3088 3087 3087 3087 3086 3085 3085 3085 3085 3084 3084 3083 3082 3080 3079 3077 3076 3074 3073 3072 3070 3068 3066 3064 3063 3061 3061 3061 3060 3060 3061 3060 3056 3054 3053 3054 3058 3061 3064 3066 3069 3072 3075 3077 3079
3064 3065 3067 3068 3069 3070 3071 3072 3074 3075 3075 3077 3078 3079 3080 3081 3081 3080 3080 3080 3080 3080 3079 3079 3081 3082 3084 3085 3085 3086 3086 3086 3086 3086 3087 3087 3088 3088 3088 3088 3088 3087 3087 3087 3086 3086 3085 3085 3084 3084 3084 3083 3083 3082 3080 3079 3078 3076 3075 3074 3073 3071 3069 3068 3066 3064 3063 3062 3061 3061 3061 3061 3061 3059 3056 3053 3054 3057 3060 3062 3064 3066 3068 3070 3073 3076
3063 3064 3066 3067 3068 3069 3071 3072 3073 3074 3075 3076 3078 3078 3079 3080 3080 3079 3079 3080 3080 3080 3079 3080 3081 3082 3083 3084 3085 3085 3086 3086 3086 3087 3087 3088 3088 3088 3088 3088 3088 3087 3087 3086 3086 3085 3085 3084 3084 3083 3083 3082 3082 3081 3080 3079 3078 3076 3075 3074 3073 3072 3071 3069 3068 3066 3065 3063 3062 3062 3061 3061 3061 3060 3059 3058 3058 3060 3062 3063 3062 3062 3064 3068 3071 3074
3063 3064 3065 3066 3067 3068 3069 3071 3072 3073 3074 3076 3077 3078 3079 3079 3079 3079 3079 3080 3080 3079 3079 3080 3081 3082 3083 3084 3085 3085 3085 3086 3086 3087 3087 3088 3088 3088 3088 3088 3088 3087 3087 3087 3086 3085 3085 3084 3084 3083 3082 3081 3081 3080 3079 3078 3078 3077 3076 3075 3074 3073 3072 3071 3070 3068 3067 3066 3064 3063 3062 3061 3061 3061 3061 3061 3062 3063 3064 3064 3062 3060 3062 3067 3070 3072
3063 3064 3065 3066 3067 3068 3069 3070 3071 3072 3074 3075 3077 3078 3079 3079 3079 3079 3079 3080 3080 3080 3080 3081 3082 3082 3083 3084 3085 3085 3086 3086 3087 3087 3088 3088 3088 3088 3088 3088 3088 3088 3087 3087 3087 3086 3085 3085 3084 3083 3082 3081 3080 3080 3079 3079 3078 3077 3076 3075 3074 3074 3073 3072 3071 3070 3069 3068 3066 3065 3063 3063 3062 3062 3062 3062 3062 3063 3063 3063 3062 3062 3064 3066 3068 3070
3063 3064 3064 3065 3067 3068 3069 3071 3072 3073 3074 3075 3077 3078 3079 3080 3080 3080 3080 3080 3080 3080 3081 3082 3083 3083 3084 3085 3086 3086 3086 3087 3087 3088 3088 3088 3088 3088 3088 3088 3088 3088 3088 3087 3087 3086 3085 3085 3084 3083 3082 3081 3080 3080 3079 3079 3078 3077 3076 3076 3075 3073 3072 3072 3071 3070 3069 3069 3068 3067 3066 3065 3064 3064 3064 3063 3063 3063 3063 3063 3063 3063 3064 3065 3067 3068
3064 3064 3064 3065 3067 3068 3070 3073 3074 3074 3075 3077 3078 3079 3079 3079 3080 3081 3081 3081 3081 3081 3082 3083 3084 3084 3085 3086 3087 3088 3088 3088 3089 3089 3089 3089 3089 3089 3089 3089 3089 3088 3088 3087 3087 3086 3085 3084 3084 3083 3082 3081 3080 3080 3079 3079 3078 3077 3076 3075 3074 3073 3072 3071 3071 3070 3069 3069 3068 3068 3067 3066 3066 3066 3066 3066 3065 3064 3064 3064 3064 3064 3065 3065 3066 3067
3065 3065 3066 3066 3068 3069 3071 3073 3075 3075 3077 3078 3079 3080 3080 3080 3081 3082 3082 3082 3082 3083 3083 3084 3085 3086 3087 3088 3089 3089 3090 3090 3090 3090 3090 3090 3090 3090 3090 3089 3089 3088 3088 3087 3086 3085 3085 3084 3084 3083 3082 3081 3080 3080 3079 3079 3078 3077 3076 3076 3075 3074 3072 3071 3071 3070 3069 3069 3068 3068 3067 3067 3067 3067 3067 3066 3066 3066 3065 3065 3065 3065 3065 3066 3066 3066
3066 3067 3067 3068 3068 3070 3072 3074 3075 3076 3077 3079 3080 3081 3081 3082 3082 3083 3083 3083 3084 3084 3085 3085 3087 3088 3088 3089 3090 3090 3091 3091 3091 3091 3091 3091 3091 3091 3090 3090 3089 3088 3087 3087 3086 3085 3084 3084 3084 3083 3082 3081 3080 3079 3079 3078 3078 3077 3077 3076 3075 3074 3073 3072 3071 3070 3070 3070 3069 3069 3068 3067 3067 3067 3066 3066 3066 3066 3066 3066 3066 3066 3066 3066 3066 3067
3068 3068 3069 3069 3070 3071 3073 3076 3077 3077 3077 3079 3081 3081 3082 3083 3084 3084 3084 3084 3085 3086 3086 3087 3088 3089 3089 3090 3090 3091 3091 3091 3091 3091 3091 3091 3091 3091 3090 3090 3089 3088 3087 3086 3086 3085 3084 3084 3083 3083 3082 3081 3080 3079 3079 3078 3077 3077 3076 3075 3075 3074 3073 3072 3071 3071 3070 3070 3069 3069 3068 3067 3067 3067 3066 3066 3066 3066 3066 3066 3066 3066 3066 3066 3066 3067
3071 3071 3072 3072 3072 3073 3075 3077 3078 3079 3078 3079 3081 3082 3083 3084 3084 3084 3085 3085 3086 3086 3087 3088 3089 3090 3091 3091 3091 3091 3092 3092 3092 3092 3092 3091 3091 3091 3090 3090 3089 3088 3088 3087 3087 3086 3085 3084 3083 3083 3081 3080 3079 3079 3078 3077 3077 3076 3076 3075 3074 3073 3072 3072 3071 3071 3070 3069 3069 3068 3068 3067 3067 3066 3066 3066 3066 3066 3066 3066 3066 3066 3066 3066 3066 3066